Location: Melara
(45.0500°N, 11.1833°E)
Time: 22:19:26
(UTC+00:00)

Cosmos 1461 - Pass Details

Date: 26 May 2022
Orbit: 516 x 638 km, 65.0° (Epoch: 03 July)

Event Time Altitude Azimuth Distance (km) Brightness Sun altitude
Rises 00:03:15 0° 318° (NW) 2,744 6.9 -22.8°
Reaches altitude 10° 00:05:32 10° 310° (NW) 1,865 5.8 -22.8°
Enters shadow 00:08:16 31° 278° (W) 1,020 4.1 -22.6°
